Time,TemperatureF,DewpointF,PressureIn,WindDirection,WindDirectionDegrees,WindSpeedMPH,WindSpeedGustMPH,Humidity,HourlyPrecipIn,Conditions,Clouds,dailyrainin,SoftwareType,DateUTC
2013-06-07 00:00:00,72.2,64.2,29.91,ENE,61,4.0,4.0,76,0.00,,,0.00,Wunderground v.1.15,2013-06-07 05:00:00,
2013-06-07 00:06:00,72.2,64.2,29.91,NNE,22,3.0,4.0,76,0.00,,,0.00,Wunderground v.1.15,2013-06-07 05:06:00,
2013-06-07 00:12:00,72.0,64.0,29.91,ENE,57,2.0,4.0,76,0.00,,,0.00,Wunderground v.1.15,2013-06-07 05:12:00,
2013-06-07 00:18:00,71.9,64.3,29.91,SE,125,3.0,5.0,77,0.00,,,0.00,Wunderground v.1.15,2013-06-07 05:18:00,
2013-06-07 00:24:00,71.9,64.3,29.91,NE,56,3.0,5.0,77,0.00,,,0.00,Wunderground v.1.15,2013-06-07 05:24:00,
2013-06-07 00:30:00,71.8,64.2,29.91,NNE,20,3.0,3.0,77,0.00,,,0.00,Wunderground v.1.15,2013-06-07 05:30:00,
2013-06-07 00:36:00,71.7,64.1,29.91,NNE,16,3.0,6.0,77,0.00,,,0.00,Wunderground v.1.15,2013-06-07 05:36:00,
2013-06-07 00:42:00,71.5,64.3,29.91,ENE,68,4.0,4.0,78,0.00,,,0.00,Wunderground v.1.15,2013-06-07 05:42:00,
2013-06-07 00:48:00,71.3,64.1,29.91,ENE,74,3.0,5.0,78,0.00,,,0.00,Wunderground v.1.15,2013-06-07 05:48:00,
2013-06-07 00:54:00,71.1,63.9,29.91,East,90,3.0,3.0,78,0.00,,,0.00,Wunderground v.1.15,2013-06-07 05:54:00,
2013-06-07 01:00:00,70.9,64.1,29.91,NE,35,2.0,2.0,79,0.00,,,0.00,Wunderground v.1.15,2013-06-07 06:00:00,
2013-06-07 01:06:00,70.8,64.0,29.91,ESE,108,2.0,3.0,79,0.00,,,0.00,Wunderground v.1.15,2013-06-07 06:06:00,
2013-06-07 01:12:00,70.7,63.9,29.91,NNE,19,3.0,5.0,79,0.00,,,0.00,Wunderground v.1.15,2013-06-07 06:12:00,
2013-06-07 01:18:00,70.5,63.7,29.91,NNE,25,2.0,5.0,79,0.00,,,0.00,Wunderground v.1.15,2013-06-07 06:18:00,
2013-06-07 01:24:00,70.4,63.6,29.90,ENE,77,1.0,3.0,79,0.00,,,0.00,Wunderground v.1.15,2013-06-07 06:24:00,
2013-06-07 01:30:00,70.4,63.9,29.90,NNE,16,2.0,5.0,80,0.00,,,0.00,Wunderground v.1.15,2013-06-07 06:30:00,
2013-06-07 01:36:00,70.3,63.5,29.90,NNE,23,4.0,5.0,79,0.00,,,0.00,Wunderground v.1.15,2013-06-07 06:36:00,
2013-06-07 01:42:00,70.2,63.4,29.90,ENE,66,4.0,5.0,79,0.00,,,0.00,Wunderground v.1.15,2013-06-07 06:42:00,
2013-06-07 01:48:00,70.1,63.3,29.90,NNE,33,4.0,5.0,79,0.00,,,0.00,Wunderground v.1.15,2013-06-07 06:48:00,
2013-06-07 01:54:00,70.0,63.2,29.90,East,81,3.0,3.0,79,0.00,,,0.00,Wunderground v.1.15,2013-06-07 06:54:00,
2013-06-07 02:00:00,69.9,63.4,29.90,NE,35,3.0,3.0,80,0.00,,,0.00,Wunderground v.1.15,2013-06-07 07:00:00,
2013-06-07 02:06:00,69.8,63.3,29.90,NE,36,3.0,5.0,80,0.00,,,0.00,Wunderground v.1.15,2013-06-07 07:06:00,
2013-06-07 02:12:00,69.7,63.6,29.90,North,4,3.0,4.0,81,0.00,,,0.00,Wunderground v.1.15,2013-06-07 07:12:00,
2013-06-07 02:18:00,69.4,63.3,29.90,NNE,26,3.0,4.0,81,0.00,,,0.00,Wunderground v.1.15,2013-06-07 07:18:00,
2013-06-07 02:24:00,69.1,63.4,29.90,NE,49,1.0,3.0,82,0.00,,,0.00,Wunderground v.1.15,2013-06-07 07:24:00,
2013-06-07 02:30:00,68.8,63.1,29.90,NNE,29,1.0,3.0,82,0.00,,,0.00,Wunderground v.1.15,2013-06-07 07:30:00,
2013-06-07 02:36:00,68.5,63.1,29.90,NNE,30,2.0,3.0,83,0.00,,,0.00,Wunderground v.1.15,2013-06-07 07:36:00,
2013-06-07 02:42:00,68.3,63.3,29.90,NE,34,2.0,3.0,84,0.00,,,0.00,Wunderground v.1.15,2013-06-07 07:42:00,
2013-06-07 02:48:00,68.2,63.2,29.90,North,7,2.0,3.0,84,0.00,,,0.00,Wunderground v.1.15,2013-06-07 07:48:00,
2013-06-07 02:54:00,68.2,63.2,29.90,NE,49,4.0,4.0,84,0.00,,,0.00,Wunderground v.1.15,2013-06-07 07:54:00,
2013-06-07 03:00:00,68.2,63.2,29.90,NNW,344,4.0,4.0,84,0.00,,,0.00,Wunderground v.1.15,2013-06-07 08:00:00,
2013-06-07 03:06:00,68.3,63.3,29.90,NNE,30,3.0,6.0,84,0.00,,,0.00,Wunderground v.1.15,2013-06-07 08:06:00,
2013-06-07 03:12:00,68.4,63.4,29.90,NE,43,4.0,8.0,84,0.00,,,0.00,Wunderground v.1.15,2013-06-07 08:12:00,
2013-06-07 03:18:00,68.4,63.4,29.90,NE,49,4.0,8.0,84,0.00,,,0.00,Wunderground v.1.15,2013-06-07 08:18:00,
2013-06-07 03:24:00,68.3,63.3,29.90,NNE,22,3.0,5.0,84,0.00,,,0.00,Wunderground v.1.15,2013-06-07 08:24:00,
2013-06-07 03:30:00,68.1,63.4,29.90,NNE,22,4.0,4.0,85,0.00,,,0.00,Wunderground v.1.15,2013-06-07 08:30:00,
2013-06-07 03:36:00,67.8,63.1,29.90,NNE,13,3.0,5.0,85,0.00,,,0.00,Wunderground v.1.15,2013-06-07 08:36:00,
2013-06-07 03:42:00,67.6,63.3,29.89,NNE,16,3.0,4.0,86,0.00,,,0.00,Wunderground v.1.15,2013-06-07 08:42:00,
2013-06-07 03:48:00,67.6,63.3,29.89,NNE,23,4.0,5.0,86,0.00,,,0.00,Wunderground v.1.15,2013-06-07 08:48:00,
2013-06-07 03:54:00,67.6,63.6,29.90,NE,39,3.0,4.0,87,0.00,,,0.00,Wunderground v.1.15,2013-06-07 08:54:00,
2013-06-07 04:00:00,67.5,63.5,29.90,NE,44,2.0,2.0,87,0.00,,,0.00,Wunderground v.1.15,2013-06-07 09:00:00,
2013-06-07 04:06:00,67.4,63.4,29.90,NNE,18,2.0,4.0,87,0.00,,,0.00,Wunderground v.1.15,2013-06-07 09:06:00,
2013-06-07 04:12:00,67.3,63.3,29.90,NNE,33,2.0,3.0,87,0.00,,,0.00,Wunderground v.1.15,2013-06-07 09:12:00,
2013-06-07 04:18:00,67.2,63.5,29.90,NNE,33,3.0,4.0,88,0.00,,,0.00,Wunderground v.1.15,2013-06-07 09:18:00,
2013-06-07 04:24:00,67.1,63.4,29.90,NNE,19,4.0,7.0,88,0.00,,,0.00,Wunderground v.1.15,2013-06-07 09:24:00,
2013-06-07 04:30:00,67.0,63.3,29.90,NE,39,4.0,4.0,88,0.00,,,0.00,Wunderground v.1.15,2013-06-07 09:30:00,
2013-06-07 04:36:00,67.0,63.6,29.90,North,356,3.0,4.0,89,0.00,,,0.00,Wunderground v.1.15,2013-06-07 09:36:00,
2013-06-07 04:42:00,66.8,63.5,29.90,NNE,19,3.0,4.0,89,0.00,,,0.00,Wunderground v.1.15,2013-06-07 09:42:00,
2013-06-07 04:48:00,66.6,63.3,29.90,NE,39,3.0,4.0,89,0.00,,,0.00,Wunderground v.1.15,2013-06-07 09:48:00,
2013-06-07 04:54:00,66.4,63.1,29.90,NNE,16,2.0,3.0,89,0.00,,,0.00,Wunderground v.1.15,2013-06-07 09:54:00,
2013-06-07 05:00:00,66.2,63.2,29.90,NNE,28,3.0,5.0,90,0.00,,,0.00,Wunderground v.1.15,2013-06-07 10:00:00,
2013-06-07 05:06:00,66.0,63.0,29.89,NNE,20,3.0,5.0,90,0.00,,,0.00,Wunderground v.1.15,2013-06-07 10:06:00,
2013-06-07 05:12:00,66.0,63.0,29.89,NNE,25,3.0,4.0,90,0.00,,,0.00,Wunderground v.1.15,2013-06-07 10:12:00,
2013-06-07 05:18:00,66.0,63.0,29.89,NNE,28,4.0,5.0,90,0.00,,,0.00,Wunderground v.1.15,2013-06-07 10:18:00,
2013-06-07 05:24:00,65.9,62.9,29.89,NE,49,3.0,4.0,90,0.00,,,0.00,Wunderground v.1.15,2013-06-07 10:24:00,
2013-06-07 05:30:00,65.8,62.8,29.90,NE,37,2.0,6.0,90,0.00,,,0.00,Wunderground v.1.15,2013-06-07 10:30:00,
2013-06-07 05:36:00,65.8,63.1,29.90,NNW,331,3.0,6.0,91,0.00,,,0.00,Wunderground v.1.15,2013-06-07 10:36:00,
2013-06-07 05:42:00,65.6,62.9,29.90,NNE,32,2.0,3.0,91,0.00,,,0.00,Wunderground v.1.15,2013-06-07 10:42:00,
2013-06-07 05:48:00,65.4,62.7,29.90,NE,34,2.0,4.0,91,0.00,,,0.00,Wunderground v.1.15,2013-06-07 10:48:00,
2013-06-07 05:54:00,65.3,62.9,29.90,NNE,26,3.0,3.0,92,0.00,,,0.00,Wunderground v.1.15,2013-06-07 10:54:00,
2013-06-07 06:00:00,65.3,62.6,29.90,NNE,29,3.0,3.0,91,0.00,,,0.00,Wunderground v.1.15,2013-06-07 11:00:00,
2013-06-07 06:06:00,65.3,62.6,29.90,NE,36,3.0,4.0,91,0.00,,,0.00,Wunderground v.1.15,2013-06-07 11:06:00,
2013-06-07 06:12:00,65.2,62.5,29.90,NNE,30,3.0,3.0,91,0.00,,,0.00,Wunderground v.1.15,2013-06-07 11:12:00,
2013-06-07 06:18:00,65.2,62.5,29.90,NNE,22,4.0,5.0,91,0.00,,,0.00,Wunderground v.1.15,2013-06-07 11:18:00,
2013-06-07 06:24:00,65.2,62.5,29.90,NE,46,3.0,4.0,91,0.00,,,0.00,Wunderground v.1.15,2013-06-07 11:24:00,
2013-06-07 06:30:00,65.1,62.7,29.90,NNE,27,2.0,2.0,92,0.00,,,0.00,Wunderground v.1.15,2013-06-07 11:30:00,
2013-06-07 06:36:00,65.0,62.6,29.90,NNE,23,1.0,2.0,92,0.00,,,0.00,Wunderground v.1.15,2013-06-07 11:36:00,
2013-06-07 06:42:00,65.0,62.6,29.90,NNW,342,2.0,5.0,92,0.00,,,0.00,Wunderground v.1.15,2013-06-07 11:42:00,
2013-06-07 06:48:00,64.9,62.5,29.91,NE,36,3.0,6.0,92,0.00,,,0.00,Wunderground v.1.15,2013-06-07 11:48:00,
2013-06-07 06:54:00,65.0,62.9,29.91,North,9,4.0,5.0,93,0.00,,,0.00,Wunderground v.1.15,2013-06-07 11:54:00,
2013-06-07 07:00:00,65.1,63.0,29.90,ENE,58,5.0,5.0,93,0.00,,,0.00,Wunderground v.1.15,2013-06-07 12:00:00,
2013-06-07 07:06:00,65.2,63.1,29.90,NNE,13,4.0,6.0,93,0.00,,,0.00,Wunderground v.1.15,2013-06-07 12:06:00,
2013-06-07 07:12:00,65.2,63.1,29.90,NNE,23,4.0,6.0,93,0.00,,,0.00,Wunderground v.1.15,2013-06-07 12:12:00,
2013-06-07 07:18:00,65.4,63.3,29.91,NNE,29,4.0,6.0,93,0.00,,,0.00,Wunderground v.1.15,2013-06-07 12:18:00,
2013-06-07 07:24:00,65.7,63.3,29.91,NE,43,5.0,6.0,92,0.00,,,0.00,Wunderground v.1.15,2013-06-07 12:24:00,
2013-06-07 07:30:00,65.9,63.5,29.91,NNE,23,5.0,5.0,92,0.00,,,0.00,Wunderground v.1.15,2013-06-07 12:30:00,
2013-06-07 07:36:00,66.1,63.7,29.92,NE,41,5.0,6.0,92,0.00,,,0.00,Wunderground v.1.15,2013-06-07 12:36:00,
2013-06-07 07:42:00,66.2,63.5,29.91,NNE,20,6.0,6.0,91,0.00,,,0.00,Wunderground v.1.15,2013-06-07 12:42:00,
2013-06-07 07:48:00,66.3,63.6,29.92,ENE,58,5.0,8.0,91,0.00,,,0.00,Wunderground v.1.15,2013-06-07 12:48:00,
2013-06-07 07:54:00,66.4,63.7,29.92,NNE,26,5.0,10.0,91,0.00,,,0.00,Wunderground v.1.15,2013-06-07 12:54:00,
2013-06-07 08:00:00,66.4,63.7,29.92,NNE,33,5.0,6.0,91,0.00,,,0.00,Wunderground v.1.15,2013-06-07 13:00:00,
2013-06-07 08:06:00,66.5,63.8,29.93,North,9,4.0,6.0,91,0.00,,,0.00,Wunderground v.1.15,2013-06-07 13:06:00,
2013-06-07 08:12:00,66.7,64.0,29.93,North,1,4.0,6.0,91,0.00,,,0.00,Wunderground v.1.15,2013-06-07 13:12:00,
2013-06-07 08:18:00,67.1,64.1,29.93,NNE,12,4.0,6.0,90,0.00,,,0.00,Wunderground v.1.15,2013-06-07 13:18:00,
2013-06-07 08:24:00,67.7,64.3,29.93,NNE,13,4.0,8.0,89,0.00,,,0.00,Wunderground v.1.15,2013-06-07 13:24:00,
2013-06-07 08:30:00,69.1,65.1,29.93,NE,56,3.0,3.0,87,0.00,,,0.00,Wunderground v.1.15,2013-06-07 13:30:00,
2013-06-07 08:36:00,68.8,64.1,29.94,ENE,63,3.0,6.0,85,0.00,,,0.00,Wunderground v.1.15,2013-06-07 13:36:00,
2013-06-07 08:42:00,68.8,64.4,29.94,NE,41,4.0,6.0,86,0.00,,,0.00,Wunderground v.1.15,2013-06-07 13:42:00,
2013-06-07 08:48:00,68.9,64.2,29.95,NNE,29,6.0,10.0,85,0.00,,,0.00,Wunderground v.1.15,2013-06-07 13:48:00,
2013-06-07 08:54:00,69.0,64.0,29.96,WNW,295,6.0,8.0,84,0.00,,,0.00,Wunderground v.1.15,2013-06-07 13:54:00,
2013-06-07 09:00:00,68.8,63.8,29.96,NE,44,6.0,7.0,84,0.00,,,0.00,Wunderground v.1.15,2013-06-07 14:00:00,
2013-06-07 09:06:00,68.8,64.4,29.96,NNE,25,5.0,8.0,86,0.00,,,0.00,Wunderground v.1.15,2013-06-07 14:06:00,
2013-06-07 09:12:00,69.2,64.5,29.96,NNE,23,4.0,6.0,85,0.00,,,0.00,Wunderground v.1.15,2013-06-07 14:12:00,
2013-06-07 09:18:00,69.3,64.3,29.97,NNE,13,4.0,7.0,84,0.00,,,0.00,Wunderground v.1.15,2013-06-07 14:18:00,
2013-06-07 09:24:00,69.3,64.6,29.97,North,356,4.0,9.0,85,0.00,,,0.00,Wunderground v.1.15,2013-06-07 14:24:00,
2013-06-07 09:30:00,68.9,63.9,29.97,NE,48,5.0,7.0,84,0.00,,,0.00,Wunderground v.1.15,2013-06-07 14:30:00,
2013-06-07 09:36:00,68.8,63.8,29.98,NNE,22,6.0,8.0,84,0.00,,,0.00,Wunderground v.1.15,2013-06-07 14:36:00,
2013-06-07 09:42:00,68.8,64.1,29.98,NNW,347,6.0,7.0,85,0.00,,,0.00,Wunderground v.1.15,2013-06-07 14:42:00,
2013-06-07 09:48:00,68.7,63.7,29.99,NNW,343,6.0,9.0,84,0.00,,,0.00,Wunderground v.1.15,2013-06-07 14:48:00,
2013-06-07 09:54:00,68.8,63.8,29.99,NNE,18,6.0,7.0,84,0.00,,,0.00,Wunderground v.1.15,2013-06-07 14:54:00,
2013-06-07 10:00:00,68.9,63.5,29.99,NNW,345,5.0,6.0,83,0.00,,,0.00,Wunderground v.1.15,2013-06-07 15:00:00,
2013-06-07 10:06:00,69.2,63.5,29.99,North,360,5.0,6.0,82,0.00,,,0.00,Wunderground v.1.15,2013-06-07 15:06:00,
2013-06-07 10:12:00,69.4,63.7,29.99,North,5,5.0,6.0,82,0.00,,,0.00,Wunderground v.1.15,2013-06-07 15:12:00,
2013-06-07 10:18:00,69.7,64.0,29.99,NNW,329,5.0,8.0,82,0.00,,,0.00,Wunderground v.1.15,2013-06-07 15:18:00,
2013-06-07 10:24:00,69.8,63.7,29.98,NW,325,6.0,9.0,81,0.00,,,0.00,Wunderground v.1.15,2013-06-07 15:24:00,
2013-06-07 10:30:00,70.1,63.6,29.98,NW,316,7.0,7.0,80,0.00,,,0.00,Wunderground v.1.15,2013-06-07 15:30:00,
2013-06-07 10:36:00,70.3,63.8,29.98,NNW,338,7.0,9.0,80,0.00,,,0.00,Wunderground v.1.15,2013-06-07 15:36:00,
2013-06-07 10:42:00,70.5,63.7,29.98,NW,317,6.0,9.0,79,0.00,,,0.00,Wunderground v.1.15,2013-06-07 15:42:00,
2013-06-07 10:48:00,70.6,63.4,29.98,North,8,5.0,9.0,78,0.00,,,0.00,Wunderground v.1.15,2013-06-07 15:48:00,
2013-06-07 10:54:00,70.5,63.3,29.97,NW,322,5.0,7.0,78,0.00,,,0.00,Wunderground v.1.15,2013-06-07 15:54:00,
2013-06-07 11:00:00,71.1,64.3,29.96,NNW,339,4.0,6.0,79,0.00,,,0.00,Wunderground v.1.15,2013-06-07 16:00:00,
2013-06-07 11:06:00,71.8,64.2,29.95,NNE,30,4.0,7.0,77,0.00,,,0.00,Wunderground v.1.15,2013-06-07 16:06:00,
2013-06-07 11:12:00,72.6,64.2,29.95,NNE,26,5.0,7.0,75,0.00,,,0.00,Wunderground v.1.15,2013-06-07 16:12:00,
2013-06-07 11:18:00,73.7,64.1,29.94,ENE,68,6.0,8.0,72,0.00,,,0.00,Wunderground v.1.15,2013-06-07 16:18:00,
2013-06-07 11:24:00,74.0,64.4,29.95,NNE,26,5.0,7.0,72,0.00,,,0.00,Wunderground v.1.15,2013-06-07 16:24:00,
2013-06-07 11:30:00,74.4,64.4,29.95,NW,319,5.0,5.0,71,0.00,,,0.00,Wunderground v.1.15,2013-06-07 16:30:00,
2013-06-07 11:36:00,75.4,64.5,29.95,NNE,13,4.0,6.0,69,0.00,,,0.00,Wunderground v.1.15,2013-06-07 16:36:00,
2013-06-07 11:42:00,75.1,63.8,29.95,North,6,5.0,6.0,68,0.00,,,0.00,Wunderground v.1.15,2013-06-07 16:42:00,
2013-06-07 11:48:00,74.6,63.8,29.95,NNE,22,6.0,10.0,69,0.00,,,0.00,Wunderground v.1.15,2013-06-07 16:48:00,
2013-06-07 11:54:00,74.6,64.2,29.94,North,360,5.0,8.0,70,0.00,,,0.00,Wunderground v.1.15,2013-06-07 16:54:00,
2013-06-07 12:00:00,74.5,63.7,29.94,NE,35,4.0,6.0,69,0.00,,,0.00,Wunderground v.1.15,2013-06-07 17:00:00,
2013-06-07 12:06:00,74.3,63.5,29.94,NNE,26,4.0,6.0,69,0.00,,,0.00,Wunderground v.1.15,2013-06-07 17:06:00,
2013-06-07 12:12:00,74.5,63.7,29.94,NE,42,4.0,6.0,69,0.00,,,0.00,Wunderground v.1.15,2013-06-07 17:12:00,
2013-06-07 12:18:00,74.6,62.5,29.94,NE,37,4.0,6.0,66,0.00,,,0.00,Wunderground v.1.15,2013-06-07 17:18:00,
2013-06-07 12:24:00,74.5,62.8,29.93,NE,55,5.0,8.0,67,0.00,,,0.00,Wunderground v.1.15,2013-06-07 17:24:00,
2013-06-07 12:30:00,74.7,61.3,29.94,NE,51,5.0,5.0,63,0.00,,,0.00,Wunderground v.1.15,2013-06-07 17:30:00,
2013-06-07 12:36:00,74.8,61.8,29.95,NE,34,4.0,7.0,64,0.00,,,0.00,Wunderground v.1.15,2013-06-07 17:36:00,
2013-06-07 12:42:00,74.6,62.9,29.94,North,11,5.0,6.0,67,0.00,,,0.00,Wunderground v.1.15,2013-06-07 17:42:00,
2013-06-07 12:48:00,74.5,62.0,29.95,SE,135,4.0,6.0,65,0.00,,,0.00,Wunderground v.1.15,2013-06-07 17:48:00,
2013-06-07 12:54:00,74.9,61.5,29.96,ESE,102,2.0,6.0,63,0.00,,,0.00,Wunderground v.1.15,2013-06-07 17:54:00,
2013-06-07 13:00:00,75.0,61.5,29.96,ESE,113,1.0,6.0,63,0.00,,,0.00,Wunderground v.1.15,2013-06-07 18:00:00,
2013-06-07 13:06:00,75.3,60.9,29.96,NE,41,1.0,6.0,61,0.00,,,0.00,Wunderground v.1.15,2013-06-07 18:06:00,
2013-06-07 13:12:00,75.4,60.5,29.96,NNW,330,0.0,6.0,60,0.00,,,0.00,Wunderground v.1.15,2013-06-07 18:12:00,
2013-06-07 13:18:00,75.3,60.9,29.97,NNE,22,1.0,6.0,61,0.00,,,0.00,Wunderground v.1.15,2013-06-07 18:18:00,
2013-06-07 13:24:00,75.1,61.2,29.97,NW,313,1.0,6.0,62,0.00,,,0.00,Wunderground v.1.15,2013-06-07 18:24:00,
2013-06-07 13:30:00,75.1,60.3,29.97,NW,309,2.0,2.0,60,0.00,,,0.00,Wunderground v.1.15,2013-06-07 18:30:00,
2013-06-07 13:36:00,75.1,59.8,29.97,NW,321,2.0,6.0,59,0.00,,,0.00,Wunderground v.1.15,2013-06-07 18:36:00,
2013-06-07 13:42:00,75.5,61.1,29.97,NNW,335,1.0,6.0,61,0.00,,,0.00,Wunderground v.1.15,2013-06-07 18:42:00,
2013-06-07 13:48:00,75.8,59.0,29.97,NW,309,1.0,6.0,56,0.00,,,0.00,Wunderground v.1.15,2013-06-07 18:48:00,
2013-06-07 13:54:00,75.5,59.7,29.97,SW,226,2.0,6.0,58,0.00,,,0.00,Wunderground v.1.15,2013-06-07 18:54:00,
2013-06-07 14:02:00,75.1,59.3,29.97,South,190,3.0,6.0,58,0.00,,,0.00,Wunderground v.1.15,2013-06-07 19:02:00,
2013-06-07 14:08:00,75.1,60.3,29.97,SSW,194,2.0,6.0,60,0.00,,,0.00,Wunderground v.1.15,2013-06-07 19:08:00,
2013-06-07 14:14:00,75.1,60.3,29.97,West,266,2.0,6.0,60,0.00,,,0.00,Wunderground v.1.15,2013-06-07 19:14:00,
2013-06-07 14:20:00,74.9,60.5,29.96,WSW,252,2.0,6.0,61,0.00,,,0.00,Wunderground v.1.15,2013-06-07 19:20:00,
2013-06-07 14:26:00,74.8,60.0,29.96,WSW,257,3.0,6.0,60,0.00,,,0.00,Wunderground v.1.15,2013-06-07 19:26:00,
2013-06-07 14:32:00,74.9,59.1,29.95,SSW,201,2.0,6.0,58,0.00,,,0.00,Wunderground v.1.15,2013-06-07 19:32:00,
2013-06-07 14:38:00,75.0,59.7,29.95,WSW,245,1.0,6.0,59,0.00,,,0.00,Wunderground v.1.15,2013-06-07 19:38:00,
2013-06-07 14:44:00,75.1,59.3,29.95,SW,233,1.0,6.0,58,0.00,,,0.00,Wunderground v.1.15,2013-06-07 19:44:00,
2013-06-07 14:54:00,74.8,63.5,29.94,South,179,2.0,7.0,68,0.00,,,0.00,Wunderground v.1.15,2013-06-07 19:54:00,
2013-06-07 15:00:00,74.2,64.2,29.94,SSW,195,4.0,4.0,71,0.00,,,0.00,Wunderground v.1.15,2013-06-07 20:00:00,
2013-06-07 15:06:00,74.1,64.5,29.94,SSE,165,4.0,6.0,72,0.00,,,0.00,Wunderground v.1.15,2013-06-07 20:06:00,
2013-06-07 15:12:00,74.0,64.0,29.94,SW,217,4.0,6.0,71,0.00,,,0.00,Wunderground v.1.15,2013-06-07 20:12:00,
2013-06-07 15:18:00,73.9,63.9,29.94,SSW,193,4.0,6.0,71,0.00,,,0.00,Wunderground v.1.15,2013-06-07 20:18:00,
2013-06-07 15:24:00,73.8,64.6,29.94,SW,231,4.0,6.0,73,0.00,,,0.00,Wunderground v.1.15,2013-06-07 20:24:00,
2013-06-07 15:32:00,73.6,63.6,29.93,SSW,211,3.0,6.0,71,0.00,,,0.00,Wunderground v.1.15,2013-06-07 20:32:00,
2013-06-07 15:42:00,74.1,64.1,29.92,SSE,160,1.0,6.0,71,0.00,,,0.00,Wunderground v.1.15,2013-06-07 20:42:00,
2013-06-07 15:48:00,74.2,63.4,29.91,SE,137,2.0,6.0,69,0.00,,,0.00,Wunderground v.1.15,2013-06-07 20:48:00,
2013-06-07 15:54:00,74.5,64.1,29.91,SE,130,1.0,6.0,70,0.00,,,0.00,Wunderground v.1.15,2013-06-07 20:54:00,
2013-06-07 16:00:00,75.0,64.1,29.91,South,177,0.0,6.0,69,0.00,,,0.00,Wunderground v.1.15,2013-06-07 21:00:00,
2013-06-07 16:06:00,75.4,64.5,29.91,SW,235,1.0,6.0,69,0.00,,,0.00,Wunderground v.1.15,2013-06-07 21:06:00,
2013-06-07 16:16:00,76.0,63.8,29.91,SW,214,1.0,6.0,66,0.00,,,0.00,Wunderground v.1.15,2013-06-07 21:16:00,
2013-06-07 16:22:00,76.2,63.1,29.91,WSW,240,1.0,6.0,64,0.00,,,0.00,Wunderground v.1.15,2013-06-07 21:22:00,
2013-06-07 16:28:00,76.1,63.5,29.90,SSW,210,2.0,6.0,65,0.00,,,0.00,Wunderground v.1.15,2013-06-07 21:28:00,
2013-06-07 16:34:00,76.3,62.8,29.90,SW,233,1.0,6.0,63,0.00,,,0.00,Wunderground v.1.15,2013-06-07 21:34:00,
2013-06-07 16:42:00,76.8,62.8,29.90,West,262,0.0,6.0,62,0.00,,,0.00,Wunderground v.1.15,2013-06-07 21:42:00,
2013-06-07 16:48:00,76.3,62.3,29.90,West,270,1.0,6.0,62,0.00,,,0.00,Wunderground v.1.15,2013-06-07 21:48:00,
2013-06-07 16:54:00,76.1,62.6,29.90,WSW,249,1.0,6.0,63,0.00,,,0.00,Wunderground v.1.15,2013-06-07 21:54:00,
2013-06-07 17:00:00,76.2,61.3,29.89,West,269,0.0,6.0,60,0.00,,,0.00,Wunderground v.1.15,2013-06-07 22:00:00,
2013-06-07 17:06:00,76.3,62.3,29.89,West,270,0.0,6.0,62,0.00,,,0.00,Wunderground v.1.15,2013-06-07 22:06:00,
2013-06-07 17:12:00,76.5,62.0,29.89,SW,219,0.0,6.0,61,0.00,,,0.00,Wunderground v.1.15,2013-06-07 22:12:00,
2013-06-07 17:18:00,76.5,63.0,29.88,NE,36,0.0,6.0,63,0.00,,,0.00,Wunderground v.1.15,2013-06-07 22:18:00,
2013-06-07 17:24:00,76.1,63.0,29.88,NE,36,1.0,6.0,64,0.00,,,0.00,Wunderground v.1.15,2013-06-07 22:24:00,
2013-06-07 17:30:00,75.8,63.2,29.88,NNE,13,1.0,6.0,65,0.00,,,0.00,Wunderground v.1.15,2013-06-07 22:30:00,
2013-06-07 17:36:00,75.7,62.7,29.87,NNE,28,1.0,6.0,64,0.00,,,0.00,Wunderground v.1.15,2013-06-07 22:36:00,
2013-06-07 17:42:00,75.8,62.3,29.88,ENE,65,1.0,6.0,63,0.00,,,0.00,Wunderground v.1.15,2013-06-07 22:42:00,
2013-06-07 17:48:00,75.7,61.8,29.87,NE,41,1.0,6.0,62,0.00,,,0.00,Wunderground v.1.15,2013-06-07 22:48:00,
2013-06-07 17:54:00,75.6,62.6,29.87,NNE,18,2.0,6.0,64,0.00,,,0.00,Wunderground v.1.15,2013-06-07 22:54:00,
2013-06-07 18:00:00,75.6,61.7,29.87,North,7,2.0,6.0,62,0.00,,,0.00,Wunderground v.1.15,2013-06-07 23:00:00,
2013-06-07 18:06:00,75.7,61.8,29.87,North,356,2.0,6.0,62,0.00,,,0.00,Wunderground v.1.15,2013-06-07 23:06:00,
2013-06-07 18:12:00,75.9,62.8,29.87,NNE,32,1.0,6.0,64,0.00,,,0.00,Wunderground v.1.15,2013-06-07 23:12:00,
2013-06-07 18:18:00,76.1,62.6,29.87,East,99,0.0,6.0,63,0.00,,,0.00,Wunderground v.1.15,2013-06-07 23:18:00,
2013-06-07 18:24:00,76.1,61.7,29.87,ESE,121,0.0,6.0,61,0.00,,,0.00,Wunderground v.1.15,2013-06-07 23:24:00,
2013-06-07 18:30:00,76.1,62.6,29.86,ESE,120,0.0,6.0,63,0.00,,,0.00,Wunderground v.1.15,2013-06-07 23:30:00,
2013-06-07 18:36:00,75.8,61.8,29.87,NNE,32,0.0,6.0,62,0.00,,,0.00,Wunderground v.1.15,2013-06-07 23:36:00,
2013-06-07 18:42:00,75.7,61.8,29.87,NNE,30,0.0,6.0,62,0.00,,,0.00,Wunderground v.1.15,2013-06-07 23:42:00,
2013-06-07 18:48:00,75.7,62.2,29.87,NNE,30,0.0,6.0,63,0.00,,,0.00,Wunderground v.1.15,2013-06-07 23:48:00,
2013-06-07 18:54:00,75.8,63.2,29.86,NNE,30,0.0,6.0,65,0.00,,,0.00,Wunderground v.1.15,2013-06-07 23:54:00,
2013-06-07 19:00:00,76.0,62.5,29.87,NNE,30,0.0,6.0,63,0.00,,,0.00,Wunderground v.1.15,2013-06-08 00:00:00,
2013-06-07 19:06:00,76.1,62.6,29.86,NE,56,0.0,6.0,63,0.00,,,0.00,Wunderground v.1.15,2013-06-08 00:06:00,
2013-06-07 19:12:00,76.2,62.2,29.86,NE,44,1.0,6.0,62,0.00,,,0.00,Wunderground v.1.15,2013-06-08 00:12:00,
2013-06-07 19:18:00,76.3,62.8,29.86,NNE,23,1.0,6.0,63,0.00,,,0.00,Wunderground v.1.15,2013-06-08 00:18:00,
2013-06-07 19:24:00,76.3,62.8,29.86,NE,41,1.0,6.0,63,0.00,,,0.00,Wunderground v.1.15,2013-06-08 00:24:00,
2013-06-07 19:30:00,76.7,62.2,29.86,NNE,23,1.0,6.0,61,0.00,,,0.00,Wunderground v.1.15,2013-06-08 00:30:00,
2013-06-07 19:36:00,76.9,62.0,29.86,NNE,18,2.0,6.0,60,0.00,,,0.00,Wunderground v.1.15,2013-06-08 00:36:00,
2013-06-07 19:42:00,77.2,62.2,29.87,ESE,118,1.0,6.0,60,0.00,,,0.00,Wunderground v.1.15,2013-06-08 00:42:00,
2013-06-07 19:48:00,77.6,62.1,29.87,ENE,59,0.0,6.0,59,0.00,,,0.00,Wunderground v.1.15,2013-06-08 00:48:00,
2013-06-07 19:54:00,77.7,61.7,29.87,East,82,0.0,6.0,58,0.00,,,0.00,Wunderground v.1.15,2013-06-08 00:54:00,
2013-06-07 20:00:00,77.4,61.9,29.87,NE,54,0.0,6.0,59,0.00,,,0.00,Wunderground v.1.15,2013-06-08 01:00:00,
2013-06-07 20:06:00,76.6,61.7,29.86,North,1,1.0,6.0,60,0.00,,,0.00,Wunderground v.1.15,2013-06-08 01:06:00,
2013-06-07 20:12:00,75.9,61.9,29.86,NE,41,1.0,6.0,62,0.00,,,0.00,Wunderground v.1.15,2013-06-08 01:12:00,
2013-06-07 20:18:00,74.9,61.5,29.87,NE,41,0.0,6.0,63,0.00,,,0.00,Wunderground v.1.15,2013-06-08 01:18:00,
2013-06-07 20:26:00,73.8,60.9,29.86,NE,41,0.0,6.0,64,0.00,,,0.00,Wunderground v.1.15,2013-06-08 01:26:00,
2013-06-07 20:32:00,72.9,60.0,29.87,NNE,33,0.0,6.0,64,0.00,,,0.00,Wunderground v.1.15,2013-06-08 01:32:00,
2013-06-07 20:38:00,72.4,59.5,29.87,NE,45,0.0,6.0,64,0.00,,,0.00,Wunderground v.1.15,2013-06-08 01:38:00,
2013-06-07 20:44:00,72.1,58.8,29.87,NE,37,0.0,6.0,63,0.00,,,0.00,Wunderground v.1.15,2013-06-08 01:44:00,
2013-06-07 20:50:00,71.8,58.1,29.87,NE,39,0.0,6.0,62,0.00,,,0.00,Wunderground v.1.15,2013-06-08 01:50:00,
2013-06-07 20:56:00,71.6,57.4,29.87,NE,56,0.0,6.0,61,0.00,,,0.00,Wunderground v.1.15,2013-06-08 01:56:00,
2013-06-07 21:02:00,71.7,56.1,29.87,NE,56,1.0,6.0,58,0.00,,,0.00,Wunderground v.1.15,2013-06-08 02:02:00,
2013-06-07 21:08:00,71.8,55.7,29.87,ENE,60,1.0,6.0,57,0.00,,,0.00,Wunderground v.1.15,2013-06-08 02:08:00,
2013-06-07 21:14:00,71.7,55.2,29.88,East,82,1.0,6.0,56,0.00,,,0.00,Wunderground v.1.15,2013-06-08 02:14:00,
2013-06-07 21:22:00,71.5,55.0,29.88,ENE,64,1.0,6.0,56,0.00,,,0.00,Wunderground v.1.15,2013-06-08 02:22:00,
2013-06-07 21:28:00,71.5,54.5,29.88,ENE,72,1.0,6.0,55,0.00,,,0.00,Wunderground v.1.15,2013-06-08 02:28:00,
2013-06-07 21:34:00,71.5,54.5,29.88,ENE,65,1.0,6.0,55,0.00,,,0.00,Wunderground v.1.15,2013-06-08 02:34:00,
2013-06-07 21:40:00,71.3,54.3,29.89,ESE,108,1.0,6.0,55,0.00,,,0.00,Wunderground v.1.15,2013-06-08 02:40:00,
2013-06-07 21:46:00,71.0,54.5,29.89,ESE,110,1.0,6.0,56,0.00,,,0.00,Wunderground v.1.15,2013-06-08 02:46:00,
2013-06-07 21:52:00,70.8,54.8,29.89,SE,143,2.0,6.0,57,0.00,,,0.00,Wunderground v.1.15,2013-06-08 02:52:00,
2013-06-07 21:58:00,70.7,55.2,29.89,SE,134,2.0,6.0,58,0.00,,,0.00,Wunderground v.1.15,2013-06-08 02:58:00,
2013-06-07 22:04:00,70.7,55.7,29.89,ESE,105,2.0,6.0,59,0.00,,,0.00,Wunderground v.1.15,2013-06-08 03:04:00,
2013-06-07 22:10:00,70.5,56.4,29.90,ESE,113,2.0,6.0,61,0.00,,,0.00,Wunderground v.1.15,2013-06-08 03:10:00,
2013-06-07 22:16:00,70.3,57.1,29.90,ESE,108,2.0,6.0,63,0.00,,,0.00,Wunderground v.1.15,2013-06-08 03:16:00,
2013-06-07 22:22:00,70.2,57.9,29.90,SE,136,2.0,6.0,65,0.00,,,0.00,Wunderground v.1.15,2013-06-08 03:22:00,
2013-06-07 22:28:00,70.1,58.2,29.90,SE,134,3.0,6.0,66,0.00,,,0.00,Wunderground v.1.15,2013-06-08 03:28:00,
2013-06-07 22:34:00,70.0,59.0,29.91,SE,124,2.0,6.0,68,0.00,,,0.00,Wunderground v.1.15,2013-06-08 03:34:00,
2013-06-07 22:40:00,70.0,59.0,29.91,ESE,120,2.0,2.0,68,0.00,,,0.00,Wunderground v.1.15,2013-06-08 03:40:00,
2013-06-07 22:46:00,69.9,59.3,29.91,SE,127,1.0,6.0,69,0.00,,,0.00,Wunderground v.1.15,2013-06-08 03:46:00,
2013-06-07 22:52:00,69.8,59.6,29.91,ESE,122,2.0,6.0,70,0.00,,,0.00,Wunderground v.1.15,2013-06-08 03:52:00,
2013-06-07 22:58:00,69.7,59.5,29.91,ESE,108,2.0,6.0,70,0.00,,,0.00,Wunderground v.1.15,2013-06-08 03:58:00,
2013-06-07 23:02:00,69.4,59.2,29.91,ESE,105,1.0,3.0,70,0.00,,,0.00,Wunderground v.1.15,2013-06-08 04:02:00,
2013-06-07 23:06:00,69.3,58.7,29.91,SE,131,1.0,6.0,69,0.00,,,0.00,Wunderground v.1.15,2013-06-08 04:06:00,
2013-06-07 23:08:00,69.3,58.7,29.91,ESE,113,1.0,6.0,69,0.00,,,0.00,Wunderground v.1.15,2013-06-08 04:08:00,
2013-06-07 23:10:00,69.3,58.7,29.91,ESE,110,1.0,6.0,69,0.00,,,0.00,Wunderground v.1.15,2013-06-08 04:10:00,
2013-06-07 23:16:00,69.4,58.8,29.92,SE,139,2.0,6.0,69,0.00,,,0.00,Wunderground v.1.15,2013-06-08 04:16:00,
2013-06-07 23:22:00,69.3,58.7,29.91,ESE,122,2.0,6.0,69,0.00,,,0.00,Wunderground v.1.15,2013-06-08 04:22:00,
2013-06-07 23:24:00,69.2,58.6,29.91,ESE,106,2.0,6.0,69,0.00,,,0.00,Wunderground v.1.15,2013-06-08 04:24:00,
2013-06-07 23:30:00,69.1,58.5,29.91,SE,127,2.0,2.0,69,0.00,,,0.00,Wunderground v.1.15,2013-06-08 04:30:00,
2013-06-07 23:36:00,68.9,58.3,29.92,SE,125,1.0,6.0,69,0.00,,,0.00,Wunderground v.1.15,2013-06-08 04:36:00,
2013-06-07 23:42:00,68.8,58.6,29.92,SE,125,1.0,6.0,70,0.00,,,0.00,Wunderground v.1.15,2013-06-08 04:42:00,
2013-06-07 23:48:00,68.8,58.2,29.92,ESE,122,1.0,6.0,69,0.00,,,0.00,Wunderground v.1.15,2013-06-08 04:48:00,
2013-06-07 23:54:00,68.7,57.7,29.92,ESE,117,1.0,6.0,68,0.00,,,0.00,Wunderground v.1.15,2013-06-08 04:54:00,